Flag for Sweden Weather past 2 weeks in Gothenburg, Sweden

Now
82 °F

Sunny.


Feels Like: 81 °F
Forecast: 63 / 83 °F
Wind: 9 mph from Northeast

Location: Gothenburg / Save

Current Time: Jul 24, 2014 at 1:07:32 PM

Latest Report: Jul 24, 2014 at 12:20 PM


Visibility: 10 mi

Pressure: 30.18 "Hg

Humidity: 35%

Dew point: 52 °F

Location of GothenburgLocation

Historic Weather in Gothenburg — Graph

°F

Gothenburg temperature yesterday

Maximum temperature yesterday: 82 °F (at 7:20 PM)
Minimum temperature yesterday: 59 °F (at 2:20 AM)
Average temperature yesterday: 71 °F

Past Weeks' High & Low Weather Summary

 TemperatureHumidityPressure
High84 °F (Jul 9, 2:50 PM)100% (Jul 14, 10:50 PM)30.30 "Hg (Jul 14, 10:50 PM)
Low48 °F (Jul 19, 4:50 AM)24% (Jul 11, 3:50 PM)29.50 "Hg (Jul 13, 6:50 PM)
Average67 °F69%30.01 "Hg
* Reported Jul 9 11:50 AM — Jul 24 11:50 AM, Gothenburg, Weather by CustomWeather, © 2014

Note: Actual official high and low records may vary slightly from our data, if they occured in-between our weather recording intervals... More about our weather records

Advertising

Gothenburg weather history for previous 24 hours

 ConditionsComfort  
Time TempWeatherWind HumidityBarometerVisibility
11:50 AM
Jul 24
82 °FPassing clouds.8 mph37%30.18 "HgN/A
11:07 AM81 °FSunny.7 mph45%30.18 "Hg10 mi
10:20 AM81 °FPassing clouds.6 mph45%30.18 "HgN/A
9:50 AM77 °FPassing clouds.3 mph57%30.18 "HgN/A
9:20 AM75 °FSunny.2 mph61%30.18 "Hg10 mi
8:50 AM73 °FSunny.1 mph65%30.18 "Hg10 mi
8:20 AM70 °FSunny.2 mph69%30.21 "Hg10 mi
7:50 AM66 °FSunny.3 mph78%30.21 "Hg10 mi
7:20 AM64 °FSunny.1 mph78%30.21 "Hg10 mi
6:50 AM63 °FSunny.2 mph83%30.21 "Hg10 mi
6:20 AM61 °FSunny.2 mph83%30.21 "Hg10 mi
5:50 AM59 °FSunny.2 mph82%30.18 "Hg10 mi
5:20 AM59 °FClear.3 mph82%30.18 "Hg10 mi
4:50 AM59 °FClear.2 mph82%30.18 "Hg10 mi
4:20 AM59 °FClear.3 mph82%30.18 "Hg10 mi
3:50 AM59 °FClear.No wind82%30.21 "Hg10 mi
3:20 AM61 °FClear.No wind77%30.18 "Hg10 mi
2:50 AM61 °FClear.1 mph77%30.21 "Hg10 mi
2:20 AM61 °FClear.2 mph77%30.21 "Hg10 mi
1:50 AM63 °FClear.1 mph73%30.21 "Hg10 mi
1:20 AM63 °FClear.1 mph73%30.21 "Hg10 mi
12:50 AM64 °FClear.2 mph68%30.21 "Hg10 mi
12:20 AM64 °FClear.No wind68%30.21 "Hg10 mi
11:50 PM
Jul 23
64 °FClear.3 mph68%30.21 "Hg10 mi
11:20 PM66 °FClear.No wind64%30.18 "Hg10 mi
10:50 PM66 °FClear.No wind60%30.18 "Hg10 mi
10:20 PM70 °FSunny.No wind53%30.18 "Hg10 mi
9:50 PM70 °FSunny.3 mph53%30.18 "Hg10 mi
9:20 PM75 °FSunny.3 mph41%30.18 "Hg10 mi
8:56 PM75 °FSunny.6 mph41%30.18 "Hg10 mi
8:20 PM79 °FSunny.7 mph37%30.18 "Hg10 mi
7:50 PM81 °FSunny.10 mph30%30.18 "Hg10 mi
7:20 PM82 °FSunny.8 mph42%30.18 "Hg10 mi
6:50 PM81 °FSunny.8 mph54%30.18 "Hg10 mi
6:20 PM81 °FSunny.7 mph54%30.18 "Hg10 mi
5:50 PM79 °FPassing clouds.7 mph54%30.21 "HgN/A
5:20 PM81 °FSunny.9 mph54%30.21 "Hg10 mi
4:50 PM79 °FSunny.12 mph54%30.21 "Hg10 mi
4:20 PM79 °FSunny.10 mph51%30.21 "Hg10 mi
3:50 PM79 °FSunny.12 mph58%30.24 "Hg10 mi
3:20 PM77 °FSunny.12 mph61%30.24 "Hg10 mi
1:20 PM77 °FSunny.10 mph57%30.27 "Hg10 mi
Weather by CustomWeather, © 2014

See weather overviewHow to use our weather pages